Regional Weather Roundup
Issued by NWS

Home | Current Version | Previous Version | Text Only | Print | Product List | Glossary Off
Versions: 1 2 3 4 5 6 7 8 9 10 11 12 13 14 15 16 17 18 19 20 21 22 23 24 25 26 27 28 29 30 31 32 33 34 35 36 37 38 39 40 41 42 43 44 45 46 47 48 49 50

000
ASUS43 KLOT 180406
RWRIL

ILLINOIS REGIONAL WEATHER ROUNDUP
NATIONAL WEATHER SERVICE CHICAGO/ROMEOVILLE IL
1000 PM CST WED DEC 17 2014

NOTE: "FAIR" INDICATES FEW OR NO CLOUDS BELOW 12,000 FEET WITH NO
SIGNIFICANT WEATHER AND/OR OBSTRUCTIONS TO VISIBILITY.

* THESE STATIONS ARE NOT UNDER NWS QUALITY CONTROL. THEY ALSO MAY NOT
  REPORT WEATHER SUCH AS PRECIPITATION OR FOG.

ILZ001-002-007-009-015-016-024-180500-
NORTHWEST ILLINOIS

CITY           SKY/WX    TMP DP  RH WIND       PRES   REMARKS
MOLINE         PTCLDY    20  14  77 CALM      30.30S
STERLING*      CLEAR     18  12  79 CALM      30.30S
SAVANNA*       PTCLDY    18  15  87 CALM      30.31R
$$

ILZ003-004-008-010-011-017-018-180500-
NORTH CENTRAL ILLINOIS

CITY           SKY/WX    TMP DP  RH WIND       PRES   REMARKS
ROCKFORD       CLOUDY    23  14  68 W5        30.31R WCI  17
FREEPORT*      CLOUDY    19  15  82 CALM      30.31R
ROCHELLE*      CLOUDY    22  16  78 CALM      30.29S
DE KALB*       CLOUDY    22  15  75 N7        30.27S WCI  13
PERU*          CLEAR     21  18  86 NW5       30.30S WCI  15
$$

ILZ005-006-012>014-019>023-180500-
NORTHEAST ILLINOIS

CITY           SKY/WX    TMP DP  RH WIND       PRES   REMARKS
CHICAGO-OHARE  CLOUDY    25  16  68 NW9       30.26R WCI  15
CHICAGO-MIDWAY CLOUDY    26  17  68 W7        30.28R WCI  18
AURORA         CLOUDY    24  15  68 NW6       30.29R WCI  17
LANSING*       CLOUDY    26  18  72 W6        30.28R WCI  19
JOLIET*        CLOUDY    24  17  76 W5        30.30S WCI  18
WAUKEGAN       PTCLDY    20  14  77 NW5       30.25F WCI  13
DUPAGE AIRPORT CLOUDY    24  15  68 NW8       30.27R WCI  15
KANKAKEE*      CLOUDY    26  20  77 W7        30.30S WCI  19
WHEELING       CLOUDY    25  15  66 NW7       30.28S WCI  17
MORRIS*        CLOUDY    24  19  78 NW5       30.30R WCI  19
ROMEOVILLE*    CLOUDY    24  18  76 W6        30.29R WCI  17
NORTHERLY ISL    N/A     26  17  68 W9          N/A  WCI  17
$$

LMZ740>746-180500-
SOUTHERN LAKE MICHIGAN

STATION/POSITION SKY/WX   TEMP    WIND        PRES    VSBY  WAVE
                          AIR SEA DIR/SP/G                  HT/PER
                          (F)     (DEG/KT/KT) (MB)    (MI)  (FT/S)
WAUKEGAN HARBOR            23     330/  8/ 13   N/A
HARRISON CRIB              25     320/ 10/ 13   N/A
BURNHAM HARBOR             26     250/  6/  9   N/A
CALUMET HARBOR             25     270/  4/  6 1023.9R
$$

ILZ025>027-034>036-040-047-049-050-058-095>099-180500-
WEST-CENTRAL ILLINOIS

CITY           SKY/WX    TMP DP  RH WIND       PRES   REMARKS
QUINCY         CLOUDY    24  19  81 CALM      30.30S
GALESBURG*     PTCLDY    17  15  91 NW3       30.30S
MACOMB*        MOCLDY    20  19  93 CALM      30.33R
JACKSONVILLE*  MOCLDY    25  22  88 CALM      30.32R
PITTSFIELD*    CLOUDY    26  23  87 CALM      30.32S
$$

ILZ028>032-037-038-041>044-048-051>054-059>061-180500-
CENTRAL ILLINOIS

CITY           SKY/WX    TMP DP  RH WIND       PRES   REMARKS
PONTIAC        PTCLDY    23  19  85 CALM      30.30S
BLOOMINGTON    CLOUDY    25  21  84 CALM      30.30R
DECATUR        CLOUDY    24  19  81 CALM      30.31S
PEORIA         PTCLDY    24  17  74 CALM      30.31R
LACON*         CLEAR     18  15  88 CALM      30.30S
LINCOLN*       PTCLDY    22  19  91 CALM      30.32S
SPRINGFIELD    MOCLDY    22  18  85 CALM      30.32S
TAYLORVILLE    MOCLDY    23  19  86 NE6       30.31S WCI  16
$$

ILZ033-039-045-046-055>057-062-063-180500-
EAST-CENTRAL ILLINOIS

CITY           SKY/WX    TMP DP  RH WIND       PRES   REMARKS
CHAMPAIGN      CLOUDY    25  18  74 N5        30.29S WCI  19
DANVILLE*      CLOUDY    25  18  75 NW8       30.27R WCI  16
RANTOUL*       CLOUDY    28  21  76 NW6       30.30R WCI  21
MATTOON        CLOUDY    23  18  81 N7        30.29S WCI  15
PARIS*         CLOUDY    25  21  83 CALM      30.32R
$$

ILZ079-100>102-180500-
SOUTHWEST ILLINOIS

CITY           SKY/WX    TMP DP  RH WIND       PRES   REMARKS
ALTON          CLOUDY    29  25  84 NE3       30.31R
BELLEVILLE     CLOUDY    30  27  90 NE5       30.30S WCI  25
CAHOKIA*       CLOUDY    32  26  78 NE6       30.31R WCI  26
SPARTA*        CLOUDY    32  28  83 NE5       30.30R WCI  27
$$

ILZ064>066-069>071-074>076-080>082-084>086-088>090-092>094-180500-
SOUTH-CENTRAL ILLINOIS

CITY           SKY/WX    TMP DP  RH WIND       PRES   REMARKS
CARBONDALE     CLOUDY    34  27  75 NE5       30.29R WCI  30
CAIRO*         CLOUDY    39  31  71 CALM      30.29R
EFFINGHAM*     CLOUDY    26  20  79 N3        30.32S
MARION         CLOUDY    32  28  86 N5        30.30R WCI  27
MT. VERNON     MOCLDY    28  21  74 N5        30.30R WCI  23
CENTRALIA*     MOCLDY    28  24  83 CALM      30.30R
SALEM*         MOCLDY    30  26  84 NE3       30.30S
METROPOLIS*    CLOUDY    35  30  83 CALM      30.28R
$$

ILZ067-068-072-073-078-083-087-091-180500-
SOUTHEAST ILLINOIS

CITY           SKY/WX    TMP DP  RH WIND       PRES   REMARKS
LAWRENCEVILLE  CLOUDY    28  23  81 N8        30.32R WCI  20
FLORA*         CLEAR     27  24  87 NE3       30.30F
FAIRFIELD*     MOCLDY    29  25  88 N5        30.28F WCI  23
HARRISBURG*    CLOUDY    32  28  84 NE7       30.30F WCI  25
ROBINSON*      CLOUDY    26  22  86 NE6       30.34R WCI  19
CARMI*         MOCLDY    31  29  92 N5        30.29S WCI  26
$$

ABBREVIATIONS USED IN REMARKS
   TC - TEMPERATURE IN CELSIUS
  WCI - WIND CHILL INDEX
   HX - HEAT INDEX
  VSB - VISIBILITY
$$



USA.gov is the U.S. government's official web portal to all federal, state and local government web resources and services.